Home   Weather   Wetzlar   Past weeks

Flag for Germany Past Weather in Wetzlar, Hesse, Germany — Yesterday and Last 2 Weeks

Now
32 °F

Sunny.


Feels Like: 22 °F
Forecast: 18 / 33 °F
Wind: 14 mph from Southeast

Location: Hessen

Current Time: Dec 4, 2016 at 1:23:48 pm

Latest Report: Dec 4, 2016 at 12:50 pm


Visibility: 10 mi

Pressure: 30.27 "Hg

Humidity: 69%

Dew Point: 23 °F

Location of WetzlarLocation

Past Weather in Wetzlar — Graph

°F

Wetzlar Temperature Yesterday

Maximum temperature yesterday: 34 °F (at 12:50 pm)
Minimum temperature yesterday: 27 °F (at 7:50 am)
Average temperature yesterday: 31 °F

High & Low Weather Summary for the Past Weeks

 TemperatureHumidityPressure
High55 °F (Nov 23, 12:50 pm)100% (Nov 19, 11:20 am)30.48 "Hg (Nov 19, 11:20 am)
Low21 °F (Nov 29, 7:20 am)44% (Nov 30, 2:20 pm)29.47 "Hg (Nov 20, 9:20 am)
Average38 °F84%30.09 "Hg
* Reported Nov 19 11:20 am — Dec 4 11:50 am, Wetzlar, Weather by CustomWeather, © 2016

Note: Actual official high and low records may vary slightly from our data, if they occured in-between our weather recording intervals... More about our weather records

Advertising

Wetzlar Weather History for the Previous 24 Hours

Scroll right to see more
 ConditionsComfort  
Time TempWeatherWind HumidityBarometerVisibility
11:50 am
Sun, Dec 4
30 °FSunny.14 mph75%30.30 "Hg10 mi
11:20 am30 °FSunny.15 mph69%30.30 "Hg10 mi
10:50 am28 °FSunny.15 mph74%30.30 "Hg10 mi
10:20 am28 °FSunny.15 mph80%30.30 "Hg10 mi
9:50 am27 °FSunny.12 mph80%30.30 "Hg10 mi
9:20 am27 °FSunny.14 mph80%30.27 "Hg10 mi
8:50 am23 °FSunny.12 mph86%30.27 "Hg10 mi
8:20 am23 °FSunny.15 mph86%30.27 "Hg10 mi
7:50 am21 °FClear.14 mph93%30.27 "Hg10 mi
4:50 pm
Sat, Dec 3
30 °FClear.3 mph93%30.21 "Hg10 mi
4:20 pm30 °FSunny.3 mph93%30.21 "Hg10 mi
3:50 pm32 °FSunny.5 mph80%30.21 "Hg10 mi
3:20 pm34 °FPassing clouds.5 mph81%30.21 "HgN/A
2:50 pm34 °FSunny.6 mph75%30.21 "Hg10 mi
2:20 pm34 °FSunny.6 mph75%30.21 "Hg10 mi
1:50 pm34 °FSunny.9 mph70%30.21 "Hg10 mi
1:20 pm34 °FSunny.9 mph81%30.21 "Hg10 mi
Weather by CustomWeather, © 2016

See weather overviewHow to use our weather pages